Regional Weather Roundup
Issued by NWS Kansas City/Pleasant Hill, MO

Home | Current Version | Previous Version | Text Only | Print | Product List | Glossary On
Versions: 1 2 3 4 5 6 7 8 9 10 11 12 13 14 15 16 17 18 19 20 21 22 23 24 25 26 27 28 29 30 31 32 33 34 35 36 37 38 39 40 41 42 43 44 45 46 47 48 49 50
000
ASUS43 KEAX 060104
RWREAX

WEATHER ROUNDUP FOR EASTERN KANSAS AND NORTHWEST MISSOURI
NATIONAL WEATHER SERVICE KANSAS CITY/PLEASANT HILL MO
800 PM CDT TUE MAY 05 2015

KSZ040-057-103>105-MOZ028-029-037-043-060200-
...KANSAS CITY METROPOLITAN AREA...

CITY           SKY/WX    TMP DP  RH WIND       PRES   REMARKS
K.C. INTL      CLOUDY    70  58  65 SW9       30.02R
K.C. DOWNTOWN  CLOUDY    76  60  57 SE9       30.00S
LEES SUMMIT    CLOUDY    72  60  66 SE5       30.03R
OLATHE - IXD   TSTM      65  63  93 VRB6      30.04R VSB 3/4
OLATHE - OJC   TSTM      70  64  81 W8        30.02R
LAWRENCE       CLOUDY    65  61  87 SE3       30.00F

$$

MOZ001>008-011>017-020>025-030>033-038>040-044>046-053-054-060200-
...NORTHERN AND CENTRAL MISSOURI...

CITY           SKY/WX    TMP DP  RH WIND       PRES   REMARKS
ST. JOSEPH     MOCLDY    74  58  57 SE13      29.99R
MOSBY          CLOUDY    73  59  60 SE6       30.02S
HARRISONVILLE  CLOUDY    72  63  73 E5        30.04S
WARRENSBURG    CLOUDY    68  63  83 E6        30.03S
WHITEMAN AFB   NOT AVBL
CLINTON        MOCLDY    73  64  73 E6        30.03S
SEDALIA        CLOUDY    70  61  73 NE3       30.06S
WARSAW         NOT AVBL
MARSHALL       CLOUDY    66  63  88 E5        30.07S
CHILLICOTHE      N/A     75  58  55 SE9       30.05R
MOBERLY        MOCLDY    72  57  60 SE5       30.09R
KIRKSVILLE     MOCLDY    71  59  65 S8        30.08R

$$

MOZ041-047>049-056>058-063>065-088>090-097-060200-
...EASTERN AND SOUTHERN MISSOURI...

CITY           SKY/WX    TMP DP  RH WIND       PRES   REMARKS
ST. LOUIS INTL MOCLDY    80  55  42 S5        30.11R
SPIRIT OF STL  PTCLDY    73  59  61 CALM      30.09R
COLUMBIA       PTCLDY    70  64  81 E7        30.08R
JEFFERSON CITY MOCLDY    74  62  66 E7        30.06R
MEXICO         MOCLDY    75  64  69 SE5       30.09R
HANNIBAL       CLOUDY    72  57  60 CALM      30.09S
ROLLA          PTCLDY    72  56  57 S7        30.09R
LEBANON        PTCLDY    73  54  49 SE7       30.09S
OSAGE BEACH    PTCLDY    75  54  46 S6        30.07R
SPRINGFIELD    MOCLDY    75  54  47 SE13G22   30.05R
NEVADA         CLOUDY    75  59  57 SE7       30.02R
JOPLIN         MOCLDY    73  57  57 SE7       30.00S
WEST PLAINS    CLEAR     73  52  47 SE5       30.12R

$$

IAZ060-094-KSZ022-034>040-054-083-096-NEZ052-066-093-060200-
...KANSAS...SOUTHEAST NEBRASKA AND IOWA...

CITY           SKY/WX    TMP DP  RH WIND       PRES   REMARKS
TOPEKA         CLOUDY    65  62  90 E8        29.98F
MANHATTAN      CLOUDY    72  61  68 SE14      29.93R
EMPORIA        CLOUDY    69  60  73 SE12      29.96R
CHANUTE        CLOUDY    68  65  90 SE6       29.99R
WICHITA        CLOUDY    65  60  84 SE14      29.90F
OMAHA          CLOUDY    73  59  61 SE10      29.97S
LINCOLN        CLOUDY    73  54  51 SE12      29.94F
FALLS CITY     MOCLDY    72  58  61 SE9       29.96S
LAMONI         MOCLDY    75  58  55 SE5       30.03S
DES MOINES     CLOUDY    75  59  57 SE7       30.04R

$$



USA.gov is the U.S. government's official web portal to all federal, state and local government web resources and services.